Location: *
(44.1392°N, 4.8079°E)
Time: 21:41:18
(UTC+00:00)

CENTAUR R/B - Pass Details

Date: 21 June 2021
Orbit: 740 x 1447 km, 63.4° (Epoch: 17 July)

Event Time Altitude Azimuth Distance (km) Brightness Sun altitude
Rises 02:11:38 0° 323° (NW) 4,106 6.0 -14.3°
Reaches altitude 10° 02:14:22 10° 328° (NNW) 3,232 5.5 -14.0°
Maximum altitude 02:22:11 52° 44° (NE) 1,665 4.2 -13.2°
Drops below altitude 10° 02:30:45 10° 119° (ESE) 3,549 5.5 -12.2°
Sets 02:33:53 0° 124° (SE) 4,535 6.0 -11.9°
